Regional Weather Roundup
Issued by NWS Newport/Morehead, NC

Current Version | Previous Version | Text Only | Print | Product List | Glossary Off
Versions: 1 2 3 4 5 6 7 8 9 10 11 12 13 14 15 16 17 18 19 20 21 22 23 24 25 26 27 28 29 30 31 32 33 34 35 36 37 38 39 40 41 42 43 44 45 46 47 48 49 50
000 ASUS42 KMHX 010113 RWRMHX WEATHER ROUNDUP FOR EASTERN NORTH CAROLINA NATIONAL WEATHER SERVICE NEWPORT/MOREHEAD CITY NC 900 PM EDT WED AUG 31 2016 NOTE: "FAIR" INDICATES FEW OR NO CLOUDS BELOW 12,000 FEET WITH NO SIGNIFICANT WEATHER AND/OR OBSTRUCTIONS TO VISIBILITY NCZ015>017-031-032-045>047-102-103-010200- NORTH COAST CITY SKY/WX TMP DP RH WIND PRES REMARKS EDENTON PTCLDY 81 74 79 SE7 29.94R ELIZABETH CITY N/A 79 71 76 S6 29.93S KITTY HAWK MOCLDY 78 75 91 CALM 29.93S MANTEO CLOUDY 78 75 90 S3 29.95R $$ NCZ045>047-081-094-103-104-010200- CENTRAL COAST CITY SKY/WX TMP DP RH WIND PRES REMARKS FRISCO CLOUDY 81 75 82 SE3 29.94S $$ NCZ095-097-098-100-101-010200- SOUTHERN COAST CITY SKY/WX TMP DP RH WIND PRES REMARKS BEAUFORT LGT RAIN 76 74 93 CALM 29.95R CEDAR ISLAND NOT AVBL JACKSONVILLE MOCLDY 76 73 91 CALM 29.93S PINEY ISLAND CLOUDY N/A N/A N/A SW3 29.94R WILMINGTON CLOUDY 77 72 84 CALM 29.93S $$ NCZ011>013-027>030-043-044-078>080-089-090>093-098-010200- COASTAL PLAIN CITY SKY/WX TMP DP RH WIND PRES REMARKS AHOSKIE PTCLDY 75 72 88 CALM 29.93R CLINTON CLEAR 77 74 88 CALM 29.94S ELIZABETHTOWN CLOUDY 78 74 87 CALM 29.93S GOLDSBORO PTCLDY 79 76 92 S3 29.92R GREENVILLE CLOUDY 81 75 83 S3 29.95S HAVELOCK LGT RAIN 76 73 91 CALM 29.95S KENANSVILLE CLEAR 75 73 94 CALM 29.94S KINSTON CLOUDY 79 73 83 S7 29.94S NEW BERN CLOUDY 77 74 90 S3 29.95R RICHLANDS CLOUDY 74 73 97 CALM 29.94S ROCKY MOUNT PTCLDY 78 74 87 CALM 29.93R WASHINGTON MOCLDY 78 74 86 S6 29.94R WHITEVILLE CLOUDY 74 73 96 CALM 29.93S $$ AMZ130-135-150-152-154-156-158-170-250-252-270-ANZ085-086-088-633-658-670-010200- MARINE OBSERVATIONS STATION/POSITION TIME TEMP WIND PRES WAVE SWELL AIR SEA DIR/SP/G HT/PER HT/PER (UTC) (F) (DEG/KT/KT) (MB) (FT/S) (FT/S) CHESAPEAKE LIGHT NOT AVBL 64 E VA BEACH 0050 80 81 CALM / 2 1013.2 3/11 3/11 DUCK 0000 80 80 N/A 2 E DUCK 0011 80 N/A 3/11 2/11 OREGON INLET 0000 79 82 N/A 13E OREGON INLT 0000 81 N/A 3/11 3/11 HATTERAS CG 0000 81 83 N/A DIAMOND BUOY 0050 82 85 180/ 4/ 4 1013.9 3/11 3/11 CAPE LOOKOUT 0000 79 220/ 2/ 2 1013.3 BEAUFORT LAB 0000 77 81 N/A 30 SE NEW RVR IN 0008 80 84 170/ 6/ 8 1013.4 30 SE NEW RVR IN NOT AVBL 27 SE WRIGHTSVLE 0008 79 84 160/ 8/ 10 1013.6 5 SE WRIGHTSVLE 0008 79 83 160/ 10/ 14 1014.3 225 S CAPE HAT 0050 81 84 180/ 6/ 8 1014.9 3/11 3/11 41 SE CHARLESTON 0050 79 85 60/ 16/ 21 1010.4 5/ 5 2/11 $$

USA.gov is the U.S. government's official web portal to all federal, state and local government web resources and services.